Voltar ao catálogo

STARLINK-36628

AtivoComunicaçõesSSO
NORAD 67595·PAYLOAD·🇺🇸 United States

Lançado Jan 29, 2026 de Vandenberg Space Force Base

Loading…

Próximas Passagens (próximas 24 horas)

TLE

AtualizadoSource: CelesTrak SupGP

Época: Sep 15, 2026, 02:43 UTC

1 67595C 26018G   26258.11368056 -.00003086  00000+0 -95797-4 0  2589
2 67595  97.2855 321.6209 0000492  85.0138 258.3276 15.33443996    14

Acompanhe STARLINK-36628 em tempo real com AllMySat

Download on the App Store